Regional Weather Roundup
Issued by NWS

Home | Current Version | Previous Version | Graphics & Text | Print | Product List | Glossary On
Versions: 1 2 3 4 5 6 7 8 9 10 11 12 13 14 15 16 17 18 19 20 21 22 23 24 25 26 27 28 29 30 31 32 33 34 35 36 37 38 39 40 41 42 43 44 45 46 47 48 49 50
754
ASUS43 KMPX 220901
RWRMN
WEATHER ROUNDUP FOR MINNESOTA
NATIONAL WEATHER SERVICE TWIN CITIES/CHANHASSEN MN
400 AM CDT MON MAY 22 2017


NOTE: "FAIR" INDICATES FEW OR NO CLOUDS BELOW 12,000 FEET WITH NO
SIGNIFICANT WEATHER AND/OR OBSTRUCTIONS TO VISIBILITY. N/A MEANS
CURRENT SKY AND/OR WEATHER CONDITIONS ARE NOT AVAILABLE.

MNZ060>063-068>070-221000-
   Twin Cities Metro

CITY           SKY/WX    TMP DP  RH WIND       PRES   REMARKS
TWIN CITIES    CLOUDY    45  41  86 SW8       29.89F
ST PAUL        PTCLDY    44  42  93 CALM      29.90F
CRYSTAL        PTCLDY    45  39  79 SW6       29.87F
BLAINE         PTCLDY    45  45 100 SW5       29.88S
LAKEVILLE      CLOUDY    45  43  93 SW3       29.90F
EDEN PRAIRIE   CLOUDY    45  41  86 SW7       29.88F
SOUTH ST PAUL  CLOUDY    45  42  91 SW5       29.89F
LAKE ELMO      FAIR      43  41  93 SW6       29.89F
$$
MNZ001>005-007-008-013>017-022>024-027-028-221000-
   Northwest Minnesota

CITY           SKY/WX    TMP DP  RH WIND       PRES   REMARKS
BEMIDJI        LGT RAIN  43  43  99 W7        29.78S
HALLOCK        DRIZZLE   48  45  87 NW9       29.81F
ROSEAU         CLOUDY    45  41  87 NW8       29.78F
WARROAD        CLOUDY    45  41  87 NW8       29.78S
CROOKSTON      CLOUDY    45  45 100 NW12      29.84S
FOSSTON        RAIN      43  43 100 W10       29.81F
DETROIT LAKES  CLOUDY    43  41  93 W10       29.86S
MOORHEAD       CLOUDY    43  39  87 W8        29.88F
PARK RAPIDS    CLOUDY    45  39  79 W12       29.81S
MAHNOMEN       CLOUDY    43  42  96 W16       29.83S
$$
MNZ006-009>011-018-025>026-221000-
   North Central Minnesota

CITY           SKY/WX    TMP DP  RH WIND       PRES   REMARKS
BAUDETTE       CLOUDY    45  43  93 NW8       29.74F
FLAG ISLAND    CLOUDY    46  43  87 NW15      29.75F
INTL FALLS     CLOUDY    45  42  89 NW7       29.72S
WASKISH        CLOUDY    45  43  93 W8        29.76S
BIG FORK       CLOUDY    45  43  93 SW6       29.75S
LONGVILLE      DRIZZLE   45  43  93 W6        29.79S
GRAND RAPIDS   CLOUDY    45  42  89 W7        29.79S
CRANE LAKE     CLOUDY    43  43 100 CALM      29.73S FOG
ORR            CLOUDY    43  41  93 W6        29.70F FOG
COOK           CLOUDY    45  43  93 SW7       29.74S
WALKER         CLOUDY    43  41  91 SW8       29.79S
$$
MNZ012-019>021-037-221000-
   Northeast Minnesota

CITY           SKY/WX    TMP DP  RH WIND       PRES   REMARKS
DULUTH         CLOUDY    45  42  89 W12       29.76S
ELY            CLOUDY    45  43  93 W7        29.72S
HIBBING        CLOUDY    43  42  97 W5        29.75S
EVELETH        CLOUDY    44  41  91 SW5       29.76S
DULUTH HARBOR  CLOUDY    46  45  93 SW10      29.79S
TWO HARBORS    CLOUDY    48  43  81 W7        29.73F
SILVER BAY     DRIZZLE   46  45  93 CALM      29.71F
GRAND MARAIS     N/A     40  40 100 CALM      29.69F
G MARAIS ARPRT CLOUDY    43  39  87 SW3       29.69S FOG
$$
MNZ029>031-032-039>041-046>048-054>057-064-221000-
   West Central Minnesota

CITY           SKY/WX    TMP DP  RH WIND       PRES   REMARKS
FERGUS FALLS   MOCLDY    41  41 100 NW8       29.88S
WHEATON        CLEAR     41  37  87 CALM      29.90F
MORRIS         CLEAR     41  39  93 W5        29.87F
ALEXANDRIA     CLEAR     42  40  92 W8        29.88S
ELBOW LAKE     FAIR      40  40  98 CALM      29.88S
WADENA         MOCLDY    43  41  93 W8        29.84S
GLENWOOD       CLEAR     41  39  93 W7        29.88S
APPLETON       CLEAR     39  37  93 CALM      29.88F FOG
BENSON         CLEAR     39  37  93 CALM      29.90F
ORTONVILLE     CLEAR     41  37  87 CALM      29.88F
MADISON        CLEAR     43  43 100 CALM      29.89F
WILLMAR        FAIR      43  39  87 W3        29.90S
$$
MNZ033>034-036-042>043-049>051-058-059-221000-
   Central Minnesota

CITY           SKY/WX    TMP DP  RH WIND       PRES   REMARKS
ST CLOUD       MOCLDY    41  41 100 SW5       29.86F
SAUK CENTRE    FAIR      41  39  93 W8        29.87F
PAYNESVILLE    PTCLDY    40  40 100 W6        29.88F
AITKIN         CLOUDY    45  43  93 SW7       29.79F
PINE RIVER     CLOUDY    45  43  93 W6        29.84F
BRAINERD       MOCLDY    43  42  97 W8        29.83F
STAPLES        MOCLDY    43  41  93 W7        29.84F
LONG PRAIRIE   FAIR      39  37  93 S5        29.86F
LITTLE FALLS   PTCLDY    41  37  87 W5        29.85F
LITCHFIELD     MOCLDY    46  43  87 CALM      29.89S
BUFFALO        PTCLDY    43  40  89 CALM      29.89S
MAPLE LAKE     PTCLDY    44  42  92 W5        29.89S
HUTCHINSON     CLOUDY    45  41  87 SW5       29.90F
$$
MNZ037-044-045-052-053-221000-
   East Central Minnesota

CITY           SKY/WX    TMP DP  RH WIND       PRES   REMARKS
PRINCETON      MOCLDY    45  43  93 SW5       29.87S
MORA           MOCLDY    43  41  93 SW7       29.86S
CAMBRIDGE      CLOUDY    46  43  87 SW3       29.85S
RUSH CITY      CLOUDY    44  42  92 SW6       29.85F
MOOSE LAKE     CLOUDY    45  41  87 SW5       29.79S
HINCKLEY       CLOUDY    45  43  93 SW9       29.83S
CLOQUET        CLOUDY    45  41  87 W8        29.78S
MCGREGOR       CLOUDY    45  43  93 W7        29.80S
$$
MNZ071>073-080-081-089-090-097-098-221000-
   Southwest Minnesota

CITY           SKY/WX    TMP DP  RH WIND       PRES   REMARKS
MONTEVIDEO     CLEAR     43  41  93 W5        29.89F
CANBY          CLEAR     37  37  99 CALM      29.89F
MARSHALL       CLEAR     41  39  93 S5        29.89F
REDWOOD FALLS  CLEAR     42  38  85 SW5       29.90F
OLIVIA         CLEAR     39  36  87 SW5       29.89F
PIPESTONE      CLOUDY    46  41  81 W7        29.91F
WINDOM         PTCLDY    48  43  81 S9        29.91F
WORTHINGTON    MOCLDY    44  41  89 N5        29.94R
JACKSON        MOCLDY    41  39  93 CALM      29.94S
TRACY          PTCLDY    47  43  87 SW9       29.89F
SLAYTON        CLOUDY    46  42  87 SW8       29.92F
$$
MNZ065>067-074>077-082>085-091>093-221000-
   South Central Minnesota

CITY           SKY/WX    TMP DP  RH WIND       PRES   REMARKS
MANKATO        CLEAR     44  40  85 S6        29.92F
NEW ULM        PTCLDY    43  39  87 SW3       29.91F
ST JAMES       CLEAR     43  41  93 S3        29.92F
FAIRMONT       CLEAR     43  40  89 SW8       29.93F
GLENCOE        PTCLDY    46  43  91 SW3       29.90S
FARIBAULT      CLOUDY    46  43  87 S3        29.92S
OWATONNA       MOCLDY    45  39  81 SW7       29.92F
WASECA         CLEAR     41  39  93 S5        29.93F
ALBERT LEA     CLEAR     45  43  93 SW3       29.93F
$$
MNZ078>079-086>088-094>096-221000-
   Southeast Minnesota

CITY           SKY/WX    TMP DP  RH WIND       PRES   REMARKS
ROCHESTER      CLOUDY    44  41  89 SW9       29.93F
RED WING       CLOUDY    46  39  76 W7        29.90F
STANTON        CLOUDY    46  42  86 S5        29.90F
DODGE CENTER   CLOUDY    45  41  87 SW8       29.92F
WINONA         CLOUDY    48  41  76 W7        29.93S
AUSTIN         CLEAR     39  37  93 SW3       29.94F
PRESTON        MOCLDY    43  39  85 W8        29.94S
$$
ABBREVIATIONS USED IN REMARKS
   TC - TEMPERATURES IN CELSIUS
  WCI - WIND CHILL INDEX
   HX - HEAT INDEX
  VSB - VISIBILITY
$$




USA.gov is the U.S. government's official web portal to all federal, state and local government web resources and services.